Погода в Коровьем

Россия / Курганская область     55°06′13″N   63°57′07″E
темп.,
°C
ветер,
м/с
пор.,
м/с
влажн.,
%
обл.,
%
осадки,
мм/ч
давл.,
гПа
погр.,
м
15 апреля, чт
чт1523:00+10зюз456746 0.0 102954
02:00+9зюз357056 0.0 102857
05:00+7зюз33725 0.0 102841
08:00+10юз36725 0.0 1027140
11:00+15юз46525 0.0 1025431
14:00+18зюз56375 0.0 1024779
17:00+18зюз46455 0.0 1022838
20:00+13юз45578 0.0 102145
16 апреля, пт
пт1623:00+11зюз4557100 0.0 102062
02:00+10зсз337085 0.0 102022
05:00+8зсз337910 0.0 102028
08:00+10ссз48790 0.0 1020265
11:00+11ссв7777100 0.0 1022722
14:00+7св7882100 0.0 1024674
17:00+8св5668100 0.0 1024886
20:00+6в337466 0.0 102545
17 апреля, сб
сб1723:00+6всв237699 0.0 102560
02:00+4всв356997 0.0 102598
05:00+2св22725 0.0 102525
08:00+4ссв346245 0.0 1026185
11:00+8ссв34445 0.0 10261271
14:00+10с33360 0.0 10251565
17:00+10ссз22345 0.0 10241767
20:00+8сз11465 0.0 102310
18 апреля, вс
вс1823:00+6зюз115254 0.0 102210
02:00+5юз33596 0.0 101932
05:00+3з4108953 0.0 1018203
08:00+5зсз611650 0.0 1017666
11:00+8сз8115371 0.0 10161594
14:00+6с81064100 0.1 10181346
17:00+4с8104588 0.1 10211958
20:00+1ссв7104642 0.0 10251071
19 апреля, пн
пн1923:00−2ссв69430 0.0 1028954
02:00−3ссв59450 0.0 10311263
05:00−4ссв510460 0.0 10321195
08:00−4ссв78385 0.0 10341262
11:00−1ссв67305 0.0 10341632
14:00+1ссв572974 0.0 10332050
17:00+2с673091 0.0 10332152
20:00−1с33435 0.0 103427